Stations météo

réclame
Mon MeteoGroup
Bonifati, Italie (16337): Température de l'air & dewpoint: 14.06.2018 17:00:00 - 20.06.2018 17:00:00 (CEST)Bonifati, Italie (16337): Vitesse du vent: 14.06.2018 17:00:00 - 20.06.2018 17:00:00 (CEST)Bonifati, Italie (16337): Direction du vent: 14.06.2018 17:00:00 - 20.06.2018 17:00:00 (CEST)Bonifati, Italie (16337): reduced air pressure: 14.06.2018 17:00:00 - 20.06.2018 17:00:00 (CEST)Bonifati, Italie (16337): visibility: 14.06.2018 17:00:00 - 20.06.2018 17:00:00 (CEST)
Date & Time tt [°C] td [°C] ff [km/h] ff [knt] dd ppp [hPa] vv [km]
20.06.2018 17:00:00 19,2 16,2 21 11 SE 1017,5 16
20.06.2018 16:00:00 - - - - - - -
20.06.2018 15:00:00 - - - - - - -
20.06.2018 14:00:00 25,0 20,3 8 4 SW 1016,0 18
20.06.2018 13:00:00 - - - - - - -
20.06.2018 12:00:00 - - - - - - -
20.06.2018 11:00:00 23,0 17,2 11 6 SSW 1016,3 18
20.06.2018 10:00:00 - - - - - - -
20.06.2018 09:00:00 - - - - - - -
20.06.2018 08:00:00 19,6 15,0 11 6 NNE 1016,4 18
20.06.2018 07:00:00 - - - - - - -
20.06.2018 06:00:00 - - - - - - -
20.06.2018 05:00:00 - - - - - - -
20.06.2018 04:00:00 - - - - - - -
20.06.2018 03:00:00 - - - - - - -
20.06.2018 02:00:00 - - - - - - -
20.06.2018 01:00:00 - - - - - - -
20.06.2018 00:00:00 - - - - - - -
19.06.2018 23:00:00 - - - - - - -
19.06.2018 22:00:00 - - - - - - -
19.06.2018 21:00:00 - - - - - - -
19.06.2018 20:00:00 17,4 15,2 9 5 NNE 1015,1 18
19.06.2018 19:00:00 - - - - - - -
19.06.2018 18:00:00 - - - - - - -
19.06.2018 17:00:00 18,8 15,7 15 8 N 1013,9 18
19.06.2018 16:00:00 - - - - - - -
19.06.2018 15:00:00 - - - - - - -
19.06.2018 14:00:00 24,2 20,9 11 6 WNW 1012,8 16
19.06.2018 13:00:00 - - - - - - -
19.06.2018 12:00:00 - - - - - - -
19.06.2018 11:00:00 22,0 19,4 5 3 SSW 1012,8 18
19.06.2018 10:00:00 - - - - - - -
19.06.2018 09:00:00 - - - - - - -
19.06.2018 08:00:00 19,2 16,4 0 0 N 1012,5 18
19.06.2018 07:00:00 - - - - - - -
19.06.2018 06:00:00 - - - - - - -
19.06.2018 05:00:00 - - - - - - -
19.06.2018 04:00:00 - - - - - - -
19.06.2018 03:00:00 - - - - - - -
19.06.2018 02:00:00 - - - - - - -
19.06.2018 01:00:00 - - - - - - -
19.06.2018 00:00:00 - - - - - - -
18.06.2018 23:00:00 - - - - - - -
18.06.2018 22:00:00 - - - - - - -
18.06.2018 21:00:00 - - - - - - -
18.06.2018 20:00:00 19,4 16,3 8 4 WNW 1011,3 18
18.06.2018 19:00:00 - - - - - - -
18.06.2018 18:00:00 - - - - - - -
18.06.2018 17:00:00 20,0 18,3 0 0 N 1011,4 10
18.06.2018 16:00:00 - - - - - - -
18.06.2018 15:00:00 - - - - - - -
18.06.2018 14:00:00 23,0 20,9 16 9 SSW 1011,1 18
18.06.2018 13:00:00 - - - - - - -
18.06.2018 12:00:00 - - - - - - -
18.06.2018 11:00:00 22,0 18,0 11 6 SSW 1011,1 18
18.06.2018 10:00:00 - - - - - - -
18.06.2018 09:00:00 - - - - - - -
18.06.2018 08:00:00 19,0 16,6 0 0 N 1011,9 18
18.06.2018 07:00:00 - - - - - - -
18.06.2018 06:00:00 - - - - - - -
18.06.2018 05:00:00 - - - - - - -
18.06.2018 04:00:00 - - - - - - -
18.06.2018 03:00:00 - - - - - - -
18.06.2018 02:00:00 - - - - - - -
18.06.2018 01:00:00 - - - - - - -
18.06.2018 00:00:00 - - - - - - -
17.06.2018 23:00:00 - - - - - - -
17.06.2018 22:00:00 - - - - - - -
17.06.2018 21:00:00 - - - - - - -
17.06.2018 20:00:00 20,8 18,6 15 8 WNW 1011,9 16
17.06.2018 19:00:00 - - - - - - -
17.06.2018 18:00:00 - - - - - - -
17.06.2018 17:00:00 22,4 18,8 9 5 WNW 1011,5 10
17.06.2018 16:00:00 - - - - - - -
17.06.2018 15:00:00 - - - - - - -
17.06.2018 14:00:00 22,8 16,4 8 4 W 1011,6 18
17.06.2018 13:00:00 - - - - - - -
17.06.2018 12:00:00 - - - - - - -
17.06.2018 11:00:00 21,0 17,0 5 3 SW 1011,4 18
17.06.2018 10:00:00 - - - - - - -
17.06.2018 09:00:00 - - - - - - -
17.06.2018 08:00:00 18,0 15,2 5 3 S 1010,8 18
17.06.2018 07:00:00 - - - - - - -
17.06.2018 06:00:00 - - - - - - -
17.06.2018 05:00:00 - - - - - - -
17.06.2018 04:00:00 - - - - - - -
17.06.2018 03:00:00 - - - - - - -
17.06.2018 02:00:00 - - - - - - -
17.06.2018 01:00:00 - - - - - - -
17.06.2018 00:00:00 - - - - - - -
16.06.2018 23:00:00 - - - - - - -
16.06.2018 22:00:00 - - - - - - -
16.06.2018 21:00:00 - - - - - - -
16.06.2018 20:00:00 21,8 17,0 9 5 NW 1009,0 18
16.06.2018 19:00:00 - - - - - - -
16.06.2018 18:00:00 - - - - - - -
16.06.2018 17:00:00 23,0 16,8 9 5 WSW 1008,3 18
16.06.2018 16:00:00 - - - - - - -
16.06.2018 15:00:00 - - - - - - -
16.06.2018 14:00:00 22,8 17,3 13 7 S 1008,4 18
16.06.2018 13:00:00 - - - - - - -
16.06.2018 12:00:00 - - - - - - -
16.06.2018 11:00:00 21,2 17,4 13 7 SSW 1008,2 18
16.06.2018 10:00:00 - - - - - - -
16.06.2018 09:00:00 - - - - - - -
16.06.2018 08:00:00 19,0 15,7 2 1 NNW 1008,0 18
16.06.2018 07:00:00 - - - - - - -
16.06.2018 06:00:00 - - - - - - -
16.06.2018 05:00:00 - - - - - - -
16.06.2018 04:00:00 - - - - - - -
16.06.2018 03:00:00 - - - - - - -
16.06.2018 02:00:00 - - - - - - -
16.06.2018 01:00:00 - - - - - - -
16.06.2018 00:00:00 - - - - - - -
15.06.2018 23:00:00 - - - - - - -
15.06.2018 22:00:00 - - - - - - -
15.06.2018 21:00:00 - - - - - - -
15.06.2018 20:00:00 18,4 16,6 0 0 N 1007,3 20
15.06.2018 19:00:00 - - - - - - -
15.06.2018 18:00:00 - - - - - - -
15.06.2018 17:00:00 20,6 17,0 11 6 NW 1006,5 20
15.06.2018 16:00:00 - - - - - - -
15.06.2018 15:00:00 - - - - - - -
15.06.2018 14:00:00 18,8 16,8 4 2 W 1006,6 20
15.06.2018 13:00:00 - - - - - - -
15.06.2018 12:00:00 - - - - - - -
15.06.2018 11:00:00 19,2 16,4 9 5 S 1005,9 20
15.06.2018 10:00:00 - - - - - - -
15.06.2018 09:00:00 - - - - - - -
15.06.2018 08:00:00 17,2 15,0 0 0 N 1005,4 20
15.06.2018 07:00:00 - - - - - - -
15.06.2018 06:00:00 - - - - - - -
15.06.2018 05:00:00 - - - - - - -
15.06.2018 04:00:00 - - - - - - -
15.06.2018 03:00:00 - - - - - - -
15.06.2018 02:00:00 - - - - - - -
15.06.2018 01:00:00 - - - - - - -
15.06.2018 00:00:00 - - - - - - -
14.06.2018 23:00:00 - - - - - - -
14.06.2018 22:00:00 - - - - - - -
14.06.2018 21:00:00 - - - - - - -
14.06.2018 20:00:00 18,2 16,2 4 2 SSE 1005,0 25
14.06.2018 19:00:00 - - - - - - -
14.06.2018 18:00:00 - - - - - - -
14.06.2018 17:00:00 19,0 15,1 15 8 S 1005,0 20

tt = Température de l'air
td = dewpoint
ff = Vitesse du vent
dd = Direction du vent
ppp = reduced air pressure
vv = visibility

stations d'obs. à proximité